Home > Weather > Mulhouse > Past weeks

Flag for France Past Weather in Mulhouse, Alsace, France — Yesterday and Last 2 Weeks

Now
72 °F

Passing clouds.


Feels Like: 77 °F
Forecast: 54 / 79 °F
Wind: 2 mph from North

Location: Bale-Mulhouse

Current Time: May 26, 2016 at 12:43:49 PM

Latest Report: May 26, 2016 at 12:00 PM


Visibility: N/A

Pressure: 29.98 "Hg

Humidity: 53%

Dew Point: 54 °F

Location of MulhouseLocation

Past Weather in Mulhouse — Graph

°F

Mulhouse Temperature Yesterday

Maximum temperature yesterday: 68 °F (at 2:30 PM)
Minimum temperature yesterday: 50 °F (at 3:00 AM)
Average temperature yesterday: 58 °F

High & Low Weather Summary for the Past Weeks

 TemperatureHumidityPressure
High77 °F (May 21, 3:30 PM)100% (May 17, 5:00 AM)30.21 "Hg (May 17, 5:00 AM)
Low41 °F (May 16, 1:30 AM)38% (May 18, 3:30 PM)29.50 "Hg (May 12, 1:30 PM)
Average56 °F77%29.93 "Hg
* Reported May 11 11:00 AM — May 26 11:30 AM, Mulhouse, Weather by CustomWeather, © 2016

Note: Actual official high and low records may vary slightly from our data, if they occured in-between our weather recording intervals... More about our weather records

Advertising

Mulhouse Weather History for the Previous 24 Hours

Scroll right to see more
 ConditionsComfort  
Time TempWeatherWind HumidityBarometerVisibility
11:30 AM
Thu, May 26
70 °FSunny.3 mph60%29.98 "Hg10 mi
11:00 AM70 °FSunny.2 mph53%29.98 "Hg10 mi
10:38 AM68 °FPassing clouds.3 mph60%29.98 "HgN/A
10:00 AM64 °FSunny.2 mph68%30.01 "Hg10 mi
9:30 AM63 °FSunny.2 mph73%30.01 "Hg10 mi
9:00 AM59 °FSunny.1 mph77%30.01 "Hg10 mi
8:30 AM57 °FSunny.2 mph82%30.01 "Hg10 mi
8:00 AM55 °FScattered clouds.1 mph88%30.01 "HgN/A
7:30 AM54 °FSunny.No wind94%30.01 "Hg10 mi
7:00 AM52 °FClear.No wind94%30.01 "Hg4 mi
6:30 AM50 °FPassing clouds.2 mph94%30.01 "Hg4 mi
6:00 AM48 °FFog.2 mph94%30.01 "Hg4 mi
5:30 AM48 °FCool.No wind100%30.01 "Hg4 mi
5:00 AM48 °FCool.2 mph100%30.01 "Hg4 mi
4:30 AM48 °FClear.2 mph100%29.98 "Hg10 mi
4:00 AM48 °FPassing clouds.2 mph100%30.01 "Hg4 mi
3:30 AM50 °FClear.No wind94%29.98 "Hg4 mi
3:00 AM50 °FClear.No wind94%29.98 "Hg10 mi
2:30 AM50 °FClear.1 mph94%29.98 "Hg10 mi
2:00 AM52 °FClear.2 mph94%29.98 "Hg10 mi
1:30 AM52 °FClear.2 mph94%29.98 "Hg10 mi
1:00 AM52 °FClear.5 mph94%29.98 "Hg10 mi
12:30 AM54 °FClear.No wind94%29.98 "Hg10 mi
12:00 AM54 °FClear.No wind94%29.98 "Hg10 mi
11:30 PM
Wed, May 25
55 °FClear.No wind94%29.98 "Hg10 mi
11:00 PM55 °FClear.2 mph88%29.98 "Hg10 mi
10:30 PM57 °FClear.1 mph88%29.98 "Hg10 mi
10:00 PM59 °FSunny.2 mph82%29.95 "Hg10 mi
9:30 PM63 °FSunny.No wind73%29.95 "Hg10 mi
9:00 PM64 °FSunny.2 mph60%29.95 "Hg10 mi
8:30 PM66 °FPartly sunny.1 mph60%29.95 "HgN/A
8:00 PM68 °FPartly sunny.No wind60%29.95 "HgN/A
7:30 PM66 °FPartly sunny.3 mph64%29.95 "HgN/A
7:00 PM68 °FPartly sunny.1 mph60%29.95 "HgN/A
6:30 PM66 °FPartly sunny.1 mph56%29.92 "HgN/A
6:00 PM66 °FPartly sunny.3 mph56%29.92 "HgN/A
5:30 PM68 °FPartly sunny.2 mph56%29.95 "HgN/A
5:00 PM66 °FBroken clouds.5 mph56%29.95 "HgN/A
4:30 PM66 °FPartly sunny.7 mph60%29.95 "HgN/A
4:00 PM66 °FBroken clouds.7 mph60%29.92 "HgN/A
3:30 PM68 °FBroken clouds.6 mph56%29.92 "HgN/A
3:00 PM68 °FPartly sunny.3 mph56%29.92 "HgN/A
2:30 PM68 °FScattered clouds.3 mph56%29.92 "HgN/A
2:00 PM66 °FPassing clouds.3 mph56%29.92 "HgN/A
1:30 PM64 °FPassing clouds.3 mph60%29.95 "HgN/A
1:00 PM64 °FPassing clouds.3 mph60%29.95 "HgN/A
12:30 PM63 °FPassing clouds.3 mph59%29.95 "HgN/A
12:00 PM61 °FPassing clouds.6 mph63%29.95 "HgN/A
Weather by CustomWeather, © 2016

See weather overviewHow to use our weather pages